Flag for USA

Past Weather in Huntington Beach, California, USA — Yesterday and Last 2 Weeks

Now
73 °F

Passing clouds.


Feels Like: 75 °F
Forecast: 75 / 66 °F
Wind: 9 mph from South

Location: John Wayne Airport-Orange County Airport
Current Time: Sep 25, 2020 at 6:36:04 pm
Latest Report: Sep 25, 2020 at 5:53 pm
Visibility: 10 mi
Pressure29.90 "Hg
Humidity: 69%
Dew Point: 62 °F
Location of Huntington BeachLocation

Past Weather in Huntington Beach — Graph

°F

Huntington Beach Temperature Yesterday

Maximum temperature yesterday: 82 °F (at 1:53 pm)
Minimum temperature yesterday: 65 °F (at 6:53 am)
Average temperature yesterday: 72 °F

High & Low Weather Summary for the Past Weeks

 TemperatureHumidityPressure
High93 °F (Sep 17, 12:53 pm)93% (Sep 11, 6:56 am)30.04 "Hg (Sep 11, 6:56 am)
Low61 °F (Sep 11, 7:38 am)14% (Sep 17, 2:53 pm)29.79 "Hg (Sep 19, 5:53 pm)
Average73 °F65%29.92 "Hg
* Reported Sep 10 4:53 pm — Sep 25 4:53 pm, Huntington Beach. Weather by CustomWeather, © 2020

Note: Actual official high and low records may vary slightly from our data, if they occured in-between our weather recording intervals... More about our weather records

Huntington Beach Weather History for the Previous 24 Hours

Scroll right to see more
 ConditionsComfort  
Time TempWeatherWind HumidityBarometerVisibility
4:53 pm
Fri, Sep 25
76 °FSunny.8 mph62%29.90 "Hg10 mi
3:53 pm77 °FSunny.8 mph58%29.90 "Hg10 mi
2:53 pm77 °FSunny.12 mph60%29.90 "Hg10 mi
1:53 pm78 °FSunny.9 mph56%29.92 "Hg10 mi
12:53 pm77 °FSunny.8 mph58%29.94 "Hg10 mi
11:53 am76 °FPassing clouds.9 mph60%29.96 "Hg10 mi
10:53 am74 °FPassing clouds.No wind64%29.96 "Hg10 mi
10:02 am71 °FScattered clouds.5 mph68%29.97 "Hg9 mi
9:53 am71 °FPartly sunny.No wind71%29.96 "Hg9 mi
8:53 am68 °FOvercast.No wind76%29.95 "Hg8 mi
7:53 am66 °FLow clouds.No wind81%29.93 "Hg7 mi
6:53 am66 °FLow clouds.3 mph81%29.92 "Hg9 mi
5:53 am66 °FLow clouds.No wind84%29.90 "Hg9 mi
4:53 am66 °FLow clouds.No wind84%29.89 "Hg9 mi
3:53 am67 °FLow clouds.7 mph81%29.89 "Hg9 mi
2:53 am67 °FLow clouds.3 mph85%29.88 "Hg8 mi
2:15 am67 °FPassing clouds.3 mph81%29.89 "Hg10 mi
1:53 am67 °FClear.No wind81%29.88 "Hg10 mi
12:53 am67 °FClear.No wind81%29.88 "Hg10 mi
11:53 pm
Thu, Sep 24
68 °FClear.3 mph84%29.88 "Hg10 mi
10:53 pm69 °FPassing clouds.3 mph84%29.88 "Hg10 mi
9:53 pm70 °FPassing clouds.3 mph79%29.87 "Hg10 mi
8:53 pm70 °FPassing clouds.5 mph79%29.87 "Hg10 mi
7:53 pm70 °FPassing clouds.6 mph81%29.86 "Hg10 mi
6:53 pm73 °FPassing clouds.7 mph76%29.85 "Hg10 mi
Weather by CustomWeather, © 2020

See weather overview